Regional Weather Roundup
Issued by NWS Wilmington, NC

Current Version | Previous Version | Graphics & Text | Print | Product List | Glossary Off
Versions: 1 2 3 4 5 6 7 8 9 10 11 12 13 14 15 16 17 18 19 20 21 22 23 24 25 26

000
ASUS42 KILM 181113
RWRILM
RWRILM
REGIONAL HOURLY WEATHER ROUNDUP
NATIONAL WEATHER SERVICE WILMINGTON NC
600 AM EST SUN FEB 18 2018

NOTE: "FAIR" INDICATES FEW OR NO CLOUDS BELOW 12,000 FEET WITH NO
SIGNIFICANT WEATHER AND/OR OBSTRUCTIONS TO VISIBILITY.

...............WFO WILMINGTON COUNTY WARNING AREA...............

......COASTAL NC AND SC COUNTIES......

CITY           SKY/WX    TMP DP  RH WIND       PRES   REMARKS
WILMINGTON     CLOUDY    53  52  96 N6        30.17R FOG
N MYRTLE BEACH MOCLDY    57  57 100 CALM      30.16R FOG
MYRTLE BEACH   MOCLDY    57  57 100 N6        30.18R

......INLAND NC AND SC COUNTIES.......

CITY           SKY/WX    TMP DP  RH WIND       PRES   REMARKS
LUMBERTON      CLOUDY    50  49  96 N3        30.18R
ELIZABETHTOWN  NOT AVBL
WHITEVILLE     CLOUDY    52  51  97 CALM      30.17R
FLORENCE       CLOUDY    55  53  93 N6        30.18R
DARLINGTON     FAIR      49  47  93 N5        30.19R
KINGSTREE      MOCLDY    57  55  94 CALM      30.17R FOG
HARTSVILLE     MOCLDY    48  46  93 N3        30.18R
BENNETTSVILLE  FAIR      50  48  93 CALM      30.18R
CONWAY         CLOUDY    57  57 100 CALM      30.17R FOG
GEORGETOWN     CLOUDY    61  61 100 W3        30.16R
MARION         CLOUDY    54  52  94 N5        30.18R FOG

....................REST OF NORTH CAROLINA......................

.........EASTERN NC.........

CITY           SKY/WX    TMP DP  RH WIND       PRES   REMARKS
CAPE HATTERAS  FAIR      49  49 100 NW6       30.17R
JACKSONVILLE   CLOUDY    48  48 100 CALM      30.19R FOG
MOREHEAD CITY  CLOUDY    50  49  96 N9        30.18R
KENANSVILLE    CLOUDY    46  46 100 CALM      30.19R FOG
NEW BERN       FAIR      47  46  97 N5        30.19R
ELIZABETH CITY FAIR      42  42 100 W6        30.18R

.........CENTRAL NC.........

CITY           SKY/WX    TMP DP  RH WIND       PRES   REMARKS
RALEIGH DURHAM FOG       41  41 100 NW3       30.19R VSB 1/4
ROCKY MOUNT    FAIR      41  40  96 N3        30.20R FOG
ROANOKE RAPIDS NOT AVBL
FAYETTEVILLE   CLOUDY    47  47 100 NE3       30.18R FOG
HOFFMAN        FAIR      44  43  98 CALM      30.19R FOG

.........WESTERN NC.........

CITY           SKY/WX    TMP DP  RH WIND       PRES   REMARKS
CHARLOTTE      FOG       42  42 100 NW5       30.19R VSB 1
GREENSBORO     FOG       38  38 100 NW5       30.17R VSB 1/4 WCI  34
HICKORY        NOT AVBL
BOONE          NOT AVBL
ASHEVILLE      NOT AVBL

.....................REST OF SOUTH CAROLINA.....................

.........EASTERN SC.........

CITY           SKY/WX    TMP DP  RH WIND       PRES   REMARKS
CHARLESTON     CLOUDY    64  61  90 W6        30.15R
BEAUFORT MCAS  MOCLDY    62  61  96 W6        30.17R
HILTON HEAD    FAIR      63  61  94 VRB5      30.17R

.........CENTRAL SC.........

CITY           SKY/WX    TMP DP  RH WIND       PRES   REMARKS
COLUMBIA       MOCLDY    54  51  90 N3        30.18R
ORANGEBURG     CLOUDY    57  53  86 N6        30.17R
SUMTER SHAW    CLOUDY    55  51  87 NW5       30.16R

.........WESTERN SC.........

CITY           SKY/WX    TMP DP  RH WIND       PRES   REMARKS
GREENVILLE     NOT AVBL
ROCK HILL      FAIR      45  44  97 CALM      30.19R FOG
ANDERSON       CLOUDY    51  50  96 CALM      30.18R FOG
CLEMSON        NOT AVBL
GREENWOOD      CLOUDY    51  51 100 CALM      30.20R FOG


...................COASTAL AND OFFSHORE REPORTS..................

................LOCAL PIERS AND NC RESERVE................


STATION/POSITION TIME  SKY/WX   TEMP    WIND        PRES    VSBY
                                AIR SEA DIR/SP/G
                 (UTC)          (F)     (DEG/KT/KT) (MB)    (MI)
JOHNY MRCER PIER 1048            54 54  340/  7/ 10 1021.5R
NC RESRV MASNBRO NOT AVBL
OCEAN CREST PIER NOT AVBL
SPRINGMAID  PIER 1048                               1024.0R


................COASTAL AND OFFSHORE BUOYS................


STATION/POSITION TIME  SKY/WX   TEMP    WIND        PRES    VSBY
                                AIR SEA DIR/SP/G
                 (UTC)          (F)     (DEG/KT/KT) (MB)    (MI)
DIMNDSHOAL 41025 1050            54 69  330/ 14/ 17 1021.7R
WVE H/P(F/S)=  4/ 9 SWL H/P/D(F/S/D)=  2/100/ 9

CAPE LOOKOUT     1100                   360/  8/ 10 1022.1R
ONSLOW BAY 41036 NOT AVBL
ONSLOW BAY 41064 1008            58 67  340/ 12/ 16 1020.5R
ONSLOW BAY 41159 1030               67                N/A
WVE H/P(F/S)=  4/ 5 SWL H/P/D(F/S/D)=  2/150/11

MASNBO INL 41110 1029               53                N/A
WVE H/P(F/S)=  2/10

WILM HARBR 41108 1030               54                N/A
WVE H/P(F/S)=  4/ 5

27SE WRITB 41037 1008            58 65  320/ 10/ 14 1020.5R
FRYING PAN 41013 1100            61 65  290/ 10/ 14 1020.8
SUNST NRSH 41024 1008            55 53   CALM  /  2 1020.2R
CAPRS NRSH 41029 1008            54 56  260/  8/ 12 1020.3R
EDISTO     41004 1100            68 68  260/ 14/ 17 1021.0


..........OFFSHORE BUOYS BEYOND 100 NM OFFSHORE...........
.....IN A TRIANGLE---HAT TO BERMUDA TO BAHAMAS TO HAT.....


STATION/POSITION TIME  SKY/WX   TEMP    WIND        PRES    VSBY
                                AIR SEA DIR/SP/G
                 (UTC)          (F)     (DEG/KT/KT) (MB)    (MI)
150E HAT   41001 NOT AVBL
W BERMUDA  41048 1100            71 70  240/ 14/ 16 1022.8
ATLANTIC S 41049 1050            72 76  330/  2/  4 1025.8R
WVE H/P(F/S)=  5/ 9 SWL H/P/D(F/S/D)=  5/360/ 9

E BAHAMAS  41046 1100            75 77   70/ 12/ 14 1023.9
NE BAHAMAS 41047 1050                   200/  4/  6 1024.9R
WVE H/P(F/S)=  4/ 8 SWL H/P/D(F/S/D)=  3/ 50/ 8

120E CANVRL41010 NOT AVBL

END




USA.gov is the U.S. government's official web portal to all federal, state and local government web resources and services.